1292457631231,92.4857
1292457691231,92.0471
1292457751231,92.4880
1292457811231,92.3675
1292457871231,92.2941
1292457931231,92.0388
1292457991231,91.8334
1292458051231,92.0747
1292458111231,92.2490
1292458171231,92.2461
1292458231231,93.6824
1292458291231,91.9612
1292458351231,91.8712
1292458411231,91.6976
1292458471231,92.9054
1292458531231,92.4178
1292458591231,92.2171
1292458651231,91.8580
1292458711231,91.7065
1292458771231,92.1325
1292458831231,92.3819
1292458891231,92.3316
1292458951231,92.0463
1292459011231,91.9137
1292459071231,91.9352
1292459131231,91.8316
1292459191231,91.9616
1292459251231,92.0756
1292459311231,92.1898
1292459371231,91.9647
1292459431231,91.7944
1292459491231,92.1467
1292459551231,91.8355
1292459611231,92.2482
1292459671231,91.9176
1292459731231,92.2739
1292459791231,92.1302
1292459851231,92.0946
1292459911231,92.1112
1292459971231,92.1143
1292460031231,92.3160
1292460091231,92.1888
1292460151231,92.2320
1292460211231,92.5845
1292460271231,92.1681
1292460331231,92.7239
1292460391231,92.2561
1292460451231,92.2119
1292460511231,92.3975
1292460571231,92.3616
1292460631231,92.3472
1292460691231,92.4475
1292460751231,92.5512
1292460811231,92.1032
1292460871231,92.6921
1292460931231,92.6438
1292460991231,92.4965
1292461051231,92.3803
1292461111231,92.1363
1292461171231,91.8922
1292461231241,92.4237
1292461291241,92.4713
1292461351241,92.5987
1292461411241,92.3271
1292461471241,92.9169
1292461531241,92.7566
1292461591241,92.5203
1292461651241,92.5677
1292461711241,91.8339
1292461771241,92.1772
1292461831241,92.4222
1292461891241,92.4694
1292461951241,92.2224
1292462011241,92.3981
1292462071241,92.2857
1292462131241,92.1140
1292462191241,92.3529
1292462251241,92.4084
1292462311241,92.2976
1292462371241,92.1441
1292462431241,92.4523
1292462491241,92.2315
1292462551241,92.5656
1292462611241,93.0698
1292462671241,91.9789
1292462731241,92.4826
1292462791241,92.1889
1292462851241,92.7357
1292462911241,92.0367
1292462971241,92.1320
1292463031241,92.3887
1292463091241,92.1511
1292463151241,92.2580
1292463211241,92.1065
1292463271241,92.4242
1292463331241,92.5766
1292463391241,92.4675
1292463451241,92.5646
1292463511241,92.4783
1292463571241,92.6900
1292463631241,92.7909
1292463691241,92.3916
1292463751241,93.0869
1292463811241,92.4184
1292463871241,91.7633
1292463931241,92.6930
1292463991241,92.7343
1292464051241,92.2408
1292464111241,92.6010
1292464171241,92.3365
1292464231241,92.6916
1292464291241,92.3764
1292464351241,92.4939
1292464411241,92.7744
1292464471241,92.4808
1292464531241,92.2922
1292464591241,92.6446
1292464651241,92.9295
1292464711241,92.8069
1292464771241,92.5065
1292464831252,92.6451
1292464891252,92.3824
1292464951252,92.8406
1292465011252,92.8984
1292465071252,92.0280
1292465131252,92.9583
1292465191252,92.5634
1292465251252,92.7345
1292465311252,92.7876
1292465371252,92.9214
1292465431252,92.7256
1292465491252,92.8794
1292465551252,92.3368
1292465611252,92.7659
1292465671252,92.8595
1292465731252,93.0652
1292465791252,92.7255
1292465851252,92.8575
1292465911252,92.7420
1292465971252,93.0445
1292466031252,92.8751
1292466091252,93.4468
1292466151252,93.0205
1292466211252,92.7682
1292466271252,93.0830
1292466331252,93.0856
1292466391252,93.1889
1292466451252,92.9258
1292466511252,92.9457
1292466571252,93.5145
1292466631252,93.2814
1292466691252,93.1692
1292466751252,92.8395
1292466811252,92.6712
1292466871252,93.0469
1292466931252,92.6550
1292466991252,92.9136
1292467051252,92.6373
1292467111252,92.9892
1292467171252,93.1296
1292467231252,93.0333
1292467291252,93.0171
1292467351252,92.9166
1292467411252,92.9716
1292467471252,93.1626
1292467531252,93.3482
1292467591252,93.2950
1292467651252,93.0205
1292467711252,93.1896
1292467771252,92.7693
1292467831252,93.2788
1292467891252,93.1916
1292467951252,93.6962
1292468011252,93.1480
1292468071252,92.9442
1292468131252,92.6662
1292468191252,93.0589
1292468251252,93.5768
1292468311252,93.4579
1292468371252,92.7989
1292468431263,93.3947
1292468491263,93.2473
1292468551263,93.2768
1292468611263,93.1898
1292468671263,93.0987
1292468731263,93.3105
1292468791263,93.3865
1292468851263,93.4259
1292468911263,93.0232
1292468971263,93.3689
1292469031263,92.7873
1292469091263,93.3719
1292469151263,93.0054
1292469211263,93.0177
1292469271263,92.4508
1292469331263,93.0057
1292469391263,92.9870
1292469451263,92.4777
1292469511263,93.3284
1292469571263,92.8184
1292469631263,92.5376
1292469691263,92.9612
1292469751263,92.4373
1292469811263,92.8314
1292469871263,92.7994
1292469931263,92.7342
1292469991263,92.5970
1292470051263,92.8294
1292470111263,92.4847
1292470171263,92.6201
1292470231263,92.6222
1292470291263,92.6600
1292470351263,92.9009
1292470411263,92.9299
1292470471263,93.2120
1292470531263,92.7384
1292470591263,93.0014
1292470651263,92.9125
1292470711263,92.8786
1292470771263,92.6987
1292470831263,92.9787
1292470891263,92.9943
1292470951263,92.7842
1292471011263,92.9843
1292471071263,93.1580
1292471131263,93.1692
1292471191263,92.9966
1292471251263,92.8371
1292471311263,92.8249
1292471371263,93.3090
1292471431263,92.8147
1292471491263,92.8386
1292471551263,92.8843
1292471611263,93.1235
1292471671263,92.3042
1292471731263,92.2512
1292471791263,92.4311
1292471851263,92.6730
1292471911263,92.7848
1292471971263,93.1354
1292472031273,92.8342
1292472091273,92.7710
1292472151273,92.7722
1292472211273,93.2784
1292472271273,92.4871
1292472331273,92.9321
1292472391273,92.6388
1292472451273,92.6916
1292472511273,93.0354
1292472571273,93.0355
1292472631273,92.7621
1292472691273,93.0317
1292472751273,92.5730
1292472811273,92.6223
1292472871273,92.8311
1292472931273,92.5472
1292472991273,92.5746
1292473051273,92.9969
1292473111273,92.4254
1292473171273,93.0601
1292473231273,92.5023
1292473291273,92.3146
1292473351273,92.3721
1292473411273,92.4672
1292473471273,92.5805
1292473531273,92.6914
1292473591273,92.7270
1292473651273,92.4062
1292473711273,93.2751
1292473771273,92.9912
1292473831273,92.7797
1292473891273,92.9026
1292473951273,92.8957
1292474011273,92.6126
1292474071273,92.9372
1292474131273,93.0206
1292474191273,92.8815
1292474251273,92.8383
1292474311273,92.7609
1292474371273,92.7524
1292474431273,92.6950
1292474491273,92.9069
1292474551273,93.0969
1292474611273,92.5730
1292474671273,92.8092
1292474731273,92.3171
1292474791273,92.5232
1292474851273,92.7284
1292474911273,92.6310
1292474971273,92.1875
1292475031273,92.4314
1292475091273,92.6177
1292475151273,92.4744
1292475211273,92.3083
1292475271273,92.4799
1292475331273,92.4743
1292475391273,92.3691
1292475451273,92.2274
1292475511273,92.4326
1292475571273,92.2714
1292475631284,92.2335
1292475691284,92.3145
1292475751284,92.3676
1292475811284,92.1540
1292475871284,92.3685
1292475931284,92.4050
1292475991284,92.3401
1292476051284,92.5632
1292476111284,92.1068
1292476171284,92.0969
1292476231284,92.7768
1292476291284,92.6367
1292476351284,91.9773
1292476411284,91.8378
1292476471284,91.8953
1292476531284,92.3010
1292476591284,92.1402
1292476651284,93.3733
1292476711284,91.8397
1292476771284,92.0693
1292476831284,92.4243
1292476891284,92.0742
1292476951284,91.7989
1292477011284,91.6069
1292477071284,91.8841
1292477131284,91.7174
1292477191284,91.9535
1292477251284,91.7768
1292477311284,91.7286
1292477371284,91.9465
1292477431284,92.4243
1292477491284,92.1538
1292477551284,91.9132
1292477611284,91.7320
1292477671284,91.9401
1292477731284,91.8065
1292477791284,91.7017
1292477851284,92.5844
1292477911284,92.4013
1292477971284,91.9700
1292478031284,92.0763
1292478091284,91.8215
1292478151284,91.7883
1292478211284,91.7849
1292478271284,92.1189
1292478331284,91.6541
1292478391284,92.3588
1292478451284,92.2388
1292478511284,92.0591
1292478571284,91.9076
1292478631284,92.5707
1292478691284,92.2638
1292478751284,91.7317
1292478811284,92.2764
1292478871284,91.9290
1292478931284,92.1693
1292478991284,92.1481
1292479051284,92.2987
1292479111284,91.8540
1292479171284,92.0204
1292479231295,92.3115
1292479291295,91.7741
1292479351295,91.9553
1292479411295,91.9210
1292479471295,91.6159
1292479531295,91.7855
1292479591295,92.1771
1292479651295,91.7666
1292479711295,91.8608
1292479771295,91.8736
1292479831295,91.7129
1292479891295,91.5485
1292479951295,92.0078
1292480011295,91.9818
1292480071295,91.6352
1292480131295,92.0743
1292480191295,92.0556
1292480251295,91.9646
1292480311295,91.4119
1292480371295,91.8597
1292480431295,91.1800
1292480491295,91.2150
1292480551295,91.7913
1292480611295,91.4733
1292480671295,91.6546
1292480731295,91.2911
1292480791295,91.3466
1292480851295,91.5936
1292480911295,91.2812
1292480971295,91.5334
1292481031295,91.3125
1292481091295,91.8606
1292481151295,91.4248
1292481211295,91.5100
1292481271295,91.5834
1292481331295,91.2513
1292481391295,91.1732
1292481451295,91.7181
1292481511295,91.6691
1292481571295,91.5666
1292481631295,91.7501
1292481691295,91.6103
1292481751295,91.8047
1292481811295,91.4743
1292481871295,91.5739
1292481931295,91.7291
1292481991295,92.1346
1292482051295,91.7386
1292482111295,91.9056
1292482171295,91.4322
1292482231295,91.7886
1292482291295,91.5544
1292482351295,91.6812
1292482411295,91.3696
1292482471295,91.8675
1292482531295,91.7999
1292482591295,91.5150
1292482651295,91.4504
1292482711295,91.2738
1292482771295,91.7093
1292482831306,91.8837
1292482891306,91.5787
1292482951306,91.6196
1292483011306,91.6240
1292483071306,91.7560
1292483131306,91.5758
1292483191306,91.6580
1292483251306,91.4785
1292483311306,91.9914
1292483371306,91.3875
1292483431306,92.2161
1292483491306,91.8195
1292483551306,91.5271
1292483611306,91.7626
1292483671306,91.8311
1292483731306,91.8963
1292483791306,91.6198
1292483851306,91.4583
1292483911306,92.2082
1292483971306,91.6890
1292484031306,91.9734
1292484091306,91.7905
1292484151306,91.6366
1292484211306,91.8741
1292484271306,91.8508
1292484331306,91.4995
1292484391306,91.8720
1292484451306,92.2046
1292484511306,92.2927
1292484571306,91.5313
1292484631306,92.0148
1292484691306,92.0509
1292484751306,91.9244
1292484811306,91.6155
1292484871306,91.9782
1292484931306,92.1412
1292484991306,91.5061
1292485051306,92.0262
1292485111306,91.5487
1292485171306,91.7762
1292485231306,91.9194
1292485291306,92.2169
1292485351306,91.6678
1292485411306,91.9188
1292485471306,91.8077
1292485531306,92.0411
1292485591306,91.8604
1292485651306,91.9742
1292485711306,91.9493
1292485771306,92.1741
1292485831306,91.8048
1292485891306,91.6957
1292485951306,92.1814
1292486011306,91.6029
1292486071306,92.0059
1292486131306,91.7367
1292486191306,91.7569
1292486251306,91.5860
1292486311306,92.3889
1292486371306,91.6491
1292486431318,91.4077
1292486491318,91.8464
1292486551318,91.4312
1292486611318,91.7184
1292486671318,91.6938
1292486731318,91.8260
1292486791318,91.7167
1292486851318,91.9198
1292486911318,91.7730
1292486971318,91.5691
1292487031318,91.7611
1292487091318,91.7662
1292487151318,91.2656
1292487211318,91.4792
1292487271318,91.8544
1292487331318,91.4810
1292487391318,91.5632
1292487451318,92.0901
1292487511318,91.6773
1292487571318,91.5895
1292487631318,91.5980
1292487691318,91.8770
1292487751318,91.4620
1292487811318,91.5213
1292487871318,91.5792
1292487931318,92.0288
1292487991318,91.2795
1292488051318,91.1774
1292488111318,91.8213
1292488171318,91.4985
1292488231318,90.8289
1292488291318,91.6056
1292488351318,90.5914
1292488411318,91.4859
1292488471318,91.3888
1292488531318,91.3736
1292488591318,91.3162
1292488651318,90.8810
1292488711318,91.2834
1292488771318,91.0540
1292488831318,91.0093
1292488891318,91.5161
1292488951318,90.5351
1292489011318,91.1839
1292489071318,91.3068
1292489131318,91.2570
1292489191318,90.6542
1292489251318,90.9713
1292489311318,91.4151
1292489371318,90.9916
1292489431318,90.9308
1292489491318,90.7498
1292489551318,91.0080
1292489611318,91.3489
1292489671318,90.8357
1292489731318,90.6437
1292489791318,90.5920
1292489851318,90.7304
1292489911318,91.1336
1292489971318,90.6731
1292490031329,90.9013
1292490091329,90.2691
1292490151329,90.2113
1292490211329,90.4205
1292490271329,90.1025
1292490331330,90.4599
1292490391330,90.6039
1292490451330,90.6618
1292490511329,90.7692
1292490571329,90.5403
1292490631329,90.3250
1292490691329,90.6174
1292490751329,90.7321
1292490811329,90.3751
1292490871329,90.2746
1292490931329,90.5199
1292490991329,90.7278
1292491051329,90.6480
1292491111329,90.4177
1292491171329,90.6423
1292491231329,90.8331
1292491291329,90.3560
1292491351329,90.9286
1292491411329,90.5070
1292491471329,90.3571
1292491531329,90.4972
1292491591329,90.6821
1292491651330,90.1196
1292491711330,90.2330
1292491771330,90.5419
1292491831329,90.4959
1292491891329,90.6367
1292491951329,90.2786
1292492011329,90.0709
1292492071329,90.1708
1292492131329,90.6295
1292492191329,90.3844
1292492251329,90.1757
1292492311329,90.7168
1292492371329,90.4136
1292492431329,90.2204
1292492491329,89.9183
1292492551329,90.3814
1292492611329,89.9697
1292492671329,90.1724
1292492731329,90.4082
1292492791329,89.9678
1292492851329,89.7199
1292492911329,90.4462
1292492971329,89.8316
1292493031330,90.4509
1292493091330,90.2232
1292493151330,89.9961
1292493211329,90.6541
1292493271329,90.2430
1292493331329,90.1361
1292493391329,90.3436
1292493451329,90.3769
1292493511329,90.2235
1292493571329,90.3026
1292493631342,90.4532
1292493691342,90.4328
1292493751342,90.1107
1292493811342,90.3802
1292493871342,90.5224
1292493931342,90.5427
1292493991342,90.1025
1292494051342,90.4724
1292494111342,90.8471
1292494171342,90.8361
1292494231342,90.7331
1292494291342,90.0737
1292494351342,90.5837
1292494411342,89.7678
1292494471342,90.5329
1292494531342,90.4827
1292494591342,90.3089
1292494651342,89.8125
1292494711342,90.6087
1292494771342,90.8662
1292494831342,90.3430
1292494891342,90.4259
1292494951342,90.2621
1292495011342,90.3772
1292495071342,90.3588
1292495131342,89.8628
1292495191342,90.1599
1292495251342,90.2913
1292495311342,89.9272
1292495371342,90.6178
1292495431342,89.5938
1292495491342,90.1223
1292495551342,90.4025
1292495611342,90.2741
1292495671342,89.6559
1292495731342,90.3193
1292495791342,90.4089
1292495851342,89.5854
1292495911342,89.9519
1292495971342,90.0703
1292496031342,89.9676
1292496091342,90.5278
1292496151342,90.1312
1292496211342,89.9527
1292496271342,90.2430
1292496331342,89.6772
1292496391342,89.9315
1292496451342,90.1428
1292496511342,90.2941
1292496571342,89.8329
1292496631342,90.3386
1292496691342,90.2829
1292496751342,90.0758
1292496811342,90.4254
1292496871342,90.3313
1292496931342,90.1618
1292496991342,90.2810
1292497051342,90.2947
1292497111342,90.0222
1292497171342,90.3798
1292497231354,90.1357
1292497291354,90.6251
1292497351354,90.1714
1292497411354,90.0018
1292497471354,89.7753
1292497531354,90.7040
1292497591354,90.4686
1292497651354,89.9721
1292497711354,90.3518
1292497771354,89.9062
1292497831354,90.0190
1292497891354,89.9991
1292497951354,90.7218
1292498011354,90.3104
1292498071354,90.1755
1292498131354,90.6165
1292498191354,90.4416
1292498251354,90.1152
1292498311354,90.0738
1292498371354,89.9432
1292498431354,90.2730
1292498491354,90.0626
1292498551354,90.7195
1292498611354,90.4103
1292498671354,90.3808
1292498731354,90.2436
1292498791354,90.6683
1292498851354,90.8224
1292498911354,89.9702
1292498971354,90.5875
1292499031354,90.2564
1292499091354,90.6715
1292499151354,90.3097
1292499211354,89.9973
1292499271354,90.6799
1292499331354,90.2874
1292499391354,90.5207
1292499451354,90.4040
1292499511354,90.4677
1292499571354,90.4719
1292499631354,89.7548
1292499691354,90.4811
1292499751354,90.5264
1292499811354,90.4946
1292499871354,89.7946
1292499931354,90.8403
1292499991354,90.8305
1292500051354,90.5526
1292500111354,90.7476
1292500171354,90.4780
1292500231354,90.3632
1292500291354,90.4482
1292500351354,91.0605
1292500411354,90.7040
1292500471354,90.7818
1292500531354,90.5167
1292500591354,90.5950
1292500651354,90.6879
1292500711354,90.5483
1292500771354,90.5717
1292500831366,90.3947
1292500891366,90.3055
1292500951366,90.6257
1292501011366,90.4576
1292501071366,91.0628
1292501131366,90.6108
1292501191366,90.6350
1292501251366,90.4673
1292501311366,90.8731
1292501371366,90.5600
1292501431366,90.5503
1292501491366,91.1194
1292501551366,90.5192
1292501611366,90.5942
1292501671366,90.6916
1292501731366,90.7170
1292501791366,90.8152
1292501851366,90.3713
1292501911366,90.9169
1292501971366,90.7777
1292502031366,90.6413
1292502091366,90.6111
1292502151366,90.3610
1292502211366,90.3518
1292502271366,91.0410
1292502331366,90.8546
1292502391366,90.6383
1292502451366,90.7760
1292502511366,90.5651
1292502571366,90.6248
1292502631366,90.4801
1292502691366,90.3056
1292502751366,90.9329
1292502811366,91.0455
1292502871366,90.6226
1292502931366,90.7213
1292502991366,90.3296
1292503051366,90.3710
1292503111366,90.2742
1292503171366,90.3734
1292503231366,90.7577
1292503291366,90.4210
1292503351366,90.8577
1292503411366,90.5798
1292503471366,90.3481
1292503531366,90.3709
1292503591366,90.7919
1292503651366,90.8642
1292503711366,90.6129
1292503771366,90.3883
1292503831366,90.2944
1292503891366,90.1433
1292503951366,90.2804
1292504011366,90.5171
1292504071366,90.8909
1292504131366,90.3861
1292504191366,90.9264
1292504251366,90.4263
1292504311366,90.1679
1292504371366,90.5028
1292504431379,89.9991
1292504491379,90.4936
1292504551379,90.0981
1292504611379,90.3484
1292504671379,89.8757
1292504731379,90.2436
1292504791379,90.7383
1292504851379,90.0584
1292504911379,90.7354
1292504971379,90.5218
1292505031379,90.1370
1292505091379,90.0328
1292505151379,90.1159
1292505211379,90.1041
1292505271379,90.1747
1292505331379,90.1236
1292505391379,90.6414
1292505451379,89.6429
1292505511379,90.1439
1292505571379,90.2583
1292505631379,90.0692
1292505691379,90.0119
1292505751379,90.1186
1292505811379,90.2908
1292505871379,90.4065
1292505931379,90.3503
1292505991379,90.5561
1292506051379,90.4611
1292506111379,90.1696
1292506171379,90.1274
1292506231379,90.4681
1292506291379,90.1161
1292506351379,90.2453
1292506411379,89.9723
1292506471379,89.8597
1292506531379,90.0224
1292506591379,90.7337
1292506651379,90.2054
1292506711379,90.1426
1292506771379,90.1575
1292506831379,89.9751
1292506891379,90.5228
1292506951379,90.1515
1292507011379,90.3108
1292507071379,90.5057
1292507131379,90.5091
1292507191379,90.3172
1292507251379,90.2357
1292507311379,89.9083
1292507371379,90.4276
1292507431379,90.2720
1292507491379,90.2371
1292507551379,90.3698
1292507611379,90.3698
1292507671379,90.0943
1292507731379,90.1949
1292507791379,89.9811
1292507851379,90.3718
1292507911379,89.7549
1292507971379,90.2326
1292508031391,89.9910
1292508091391,90.8569
1292508151391,90.2956
1292508211391,90.3070
1292508271391,89.7624
1292508331391,89.8575
1292508391391,89.9632
1292508451391,90.1239
1292508511391,90.6837
1292508571391,90.1341
1292508631391,90.6780
1292508691391,90.0730
1292508751391,90.7282
1292508811391,91.0075
1292508871391,90.3909
1292508931391,90.8970
1292508991391,90.0236
1292509051391,90.4891
1292509111391,90.3035
1292509171391,90.7733
1292509231391,90.5288
1292509291391,90.5819
1292509351391,90.3244
1292509411391,90.4150
1292509471391,90.0960
1292509531391,90.3495
1292509591391,91.1184
1292509651391,90.6885
1292509711391,90.3381
1292509771391,90.7835
1292509831391,90.5482
1292509891391,90.5807
1292509951391,90.0737
1292510011391,90.6418
1292510071391,90.3982
1292510131391,90.3649
1292510191391,90.4291
1292510251391,90.7425
1292510311391,90.8281
1292510371391,90.8658
1292510431391,90.6507
1292510491391,90.8788
1292510551391,90.4787
1292510611391,90.4458
1292510671391,90.6075
1292510731391,90.7675
1292510791391,90.5434
1292510851391,90.7281
1292510911391,90.5034
1292510971391,90.7298
1292511031391,91.3492
1292511091391,90.8263
1292511151391,90.6338
1292511211391,90.7231
1292511271391,90.4451
1292511331391,91.0062
1292511391391,90.8044
1292511451391,90.6939
1292511511391,90.6938
1292511571391,90.9967
1292511631403,90.9332
1292511691403,91.1430
1292511751403,91.2458
1292511811403,90.7383
1292511871403,90.7510
1292511931403,90.8212
1292511991403,91.1263
1292512051403,91.0745
1292512111403,91.7765
1292512171403,92.9795
1292512231403,91.1256
1292512291403,90.8923
1292512351403,90.9830
1292512411403,90.8302
1292512471403,91.3930
1292512531403,90.8966
1292512591403,91.4941
1292512651403,91.2495
1292512711403,91.1452
1292512771403,91.0025
1292512831403,91.3606
1292512891403,91.1878
1292512951403,90.9093
1292513011403,91.4654
1292513071403,91.5760
1292513131403,91.3919
1292513191403,91.0665
1292513251403,91.1781
1292513311403,91.1428
1292513371403,91.4483
1292513431403,91.2353
1292513491403,91.2230
1292513551403,91.0993
1292513611403,91.5303
1292513671403,91.4186
1292513731403,91.3287
1292513791403,91.3751
1292513851403,91.3785
1292513911403,91.1659
1292513971403,91.0798
1292514031403,91.5267
1292514091403,91.2965
1292514151403,90.9442
1292514211403,91.5545
1292514271403,91.5295
1292514331403,91.3442
1292514391403,91.4927
1292514451403,91.1978
1292514511403,91.6960
1292514571403,91.4152
1292514631403,91.4232
1292514691403,91.5480
1292514751403,91.8403
1292514811403,91.4634
1292514871403,91.4915
1292514931403,92.0131
1292514991403,91.8940
1292515051403,91.9455
1292515111403,91.7654
1292515171403,91.8925
1292515231415,91.9159
1292515291415,92.1697
1292515351415,91.4694
1292515411415,91.9547
1292515471415,91.6195
1292515531415,91.9963
1292515591415,91.7193
1292515651416,91.5978
1292515711416,91.9558
1292515771415,91.8624
1292515831415,91.5910
1292515891415,92.3421
1292515951415,91.9535
1292516011416,91.8562
1292516071416,91.8570
1292516131416,92.1079
1292516191416,91.9427
1292516251416,91.8125
1292516311416,91.8502
1292516371416,91.9231
1292516431415,91.8726
1292516491415,91.7802
1292516551415,92.0969
1292516611415,91.9675
1292516671415,91.5029
1292516731415,92.0031
1292516791415,92.1517
1292516851415,92.3685
1292516911415,92.0714
1292516971415,91.8201
1292517031416,92.4170
1292517091416,92.1439
1292517151415,92.5113
1292517211415,92.3251
1292517271415,91.9006
1292517331415,92.2480
1292517391416,92.1620
1292517451416,92.3660
1292517511416,91.9991
1292517571416,92.4042
1292517631416,91.9593
1292517691416,91.9768
1292517751416,92.4560
1292517811415,92.3134
1292517871415,92.3076
1292517931415,92.1941
1292517991415,92.3111
1292518051415,92.3001
1292518111415,91.9852
1292518171415,92.2495
1292518231415,91.8722
1292518291415,92.2267
1292518351416,91.8971
1292518411416,92.4760
1292518471415,92.3814
1292518531415,92.1732
1292518591415,92.0622
1292518651415,91.9520
1292518711416,92.0587
1292518771416,92.1128
1292518831428,92.2680
1292518891428,91.9379
1292518951427,92.2242
1292519011427,91.9151
1292519071427,91.9143
1292519131427,92.3095
1292519191427,92.2710
1292519251427,92.2670
1292519311428,92.1095
1292519371428,92.0654
1292519431428,92.1024
1292519491428,92.0808
1292519551428,91.7354
1292519611428,91.5757
1292519671428,91.4484
1292519731428,91.8417
1292519791428,92.0475
1292519851428,91.8204
1292519911428,91.6820
1292519971428,91.8655
1292520031428,91.8740
1292520091428,91.5060
1292520151428,91.7218
1292520211428,91.6293
1292520271428,91.7695
1292520331427,91.3366
1292520391427,91.8203
1292520451427,91.5552
1292520511427,91.7633
1292520571427,91.7911
1292520631427,91.4918
1292520691428,91.5315
1292520751428,92.2229
1292520811428,91.5419
1292520871428,91.8944
1292520931428,91.8957
1292520991428,91.6144
1292521051428,91.1889
1292521111428,91.6173
1292521171428,91.4850
1292521231428,91.1880
1292521291428,91.3109
1292521351428,91.3213
1292521411428,91.3799
1292521471428,91.5457
1292521531428,91.1978
1292521591428,91.5992
1292521651427,91.3303
1292521711427,90.9050
1292521771427,91.1832
1292521831427,91.1864
1292521891427,91.2222
1292521951427,91.1494
1292522011428,91.0557
1292522071428,91.1713
1292522131428,91.3020
1292522191428,90.8682
1292522251428,91.3664
1292522311428,91.2137
1292522371428,91.0385
1292522431439,91.2401
1292522491439,91.2132
1292522551439,90.8494
1292522611439,90.8530
1292522671439,90.9092
1292522731439,90.9861
1292522791439,91.2648
1292522851439,91.0070
1292522911439,91.0863
1292522971439,90.9106